OpenBCM V1.07b12 (Linux)

Packet Radio Mailbox

SR8BBS

[OBCM_Lublin]

 Login: GUEST





  
I0OJJ  > KEPS     14.04.90 08:34z 305 Lines 14661 Bytes #-13135 (0) @ AMSAT
BID : ORB26102.1
Subj: 2Line Orbital Elements 26102.AMSAT
Path: SR8BBS<SR6DWH<SR1BSZ<EA2RCF<I0OJJ
Sent: 260412/0154z @:I0OJJ.ITA.EU [Rome] obcm2.0.2
From: I0OJJ @ I0OJJ.ITA.EU (Gustavo)
To:   KEPS @ AMSAT
X-Info: Sent with login password


QST de W1STR

AMSAT Orbital Elements for Amateur Satellites in TLE Format
From Orbital Analysis Office
New England Sci-Tech STEM Education Center
Natick MA April 12, 2026
To all radio amateurs


These element sets describe the orbits of various satellites 
in use by the amateur radio community. For details see:
www.amsat.org/keplerian-elements-formats/

A daily update of element sets is available at:
www.amsat.org/tle/daily-bulletin.txt
or without bulletin text:
www.amsat.org/tle/dailytle.txt


AO-07
1 07530U 74089B   26101.77839005 -.00000028  00000-0  11299-3 0  9998
2 07530 101.9945 114.3244 0011873 257.4353 286.6085 12.53696991352190
UO-11
1 14781U 84021B   26101.83585448  .00001129  00000-0  12094-3 0  9993
2 14781  97.8003  68.1833 0008827  51.0689 309.1314 14.90625576247248
AO-27
1 22825U 93061C   26101.78152175  .00000073  00000-0  44922-4 0  9999
2 22825  98.6921 169.2058 0007313 298.8034  61.2413 14.30924472697505
FO-29
1 24278U 96046B   26101.84252501 -.00000015  00000-0  23302-4 0  9996
2 24278  98.5326 319.7692 0348805 268.6078  87.5088 13.53271014464197
GO-32
1 25397U 98043D   26101.68445200  .00000067  00000-0  49241-4 0  9996
2 25397  99.0057  92.7734 0002207  66.8696 293.2714 14.24415281441865
ISS
1 25544U 98067A   26101.81196220  .00005753  00000-0  11297-3 0  9992
2 25544  51.6328 268.5866 0006452 301.0443  58.9912 15.48876576561463
NO-44
1 26931U 01043C   26101.87542622  .00000119  00000-0  75367-4 0  9998
2 26931  67.0510  55.7798 0006725 264.4206  95.6129 14.31930120280957
SO-50
1 27607U 02058C   26101.79856899  .00000694  00000-0  99745-4 0  9995
2 27607  64.5532 334.3681 0075517 274.5467  84.7016 14.82904164254610
CO-55
1 27844U 03031E   26101.79237396  .00000272  00000-0  13694-3 0  9995
2 27844  98.6767 111.1815 0010003  25.4110 334.7559 14.24294490182225
RS-22
1 27939U 03042A   26101.87715951  .00000852  00000-0  13973-3 0  9993
2 27939  98.3469 284.3677 0012373 115.9974  17.5957 14.73349005205782
CO-65
1 32785U 08021C   26101.87745168  .00004510  00000-0  29061-3 0  9993
2 32785  97.8246  81.9663 0007214 250.5845 109.4603 15.08838436975199
CO-66
1 32791U 08021J   26101.42969324  .00014046  00000-0  47810-3 0  9990
2 32791  97.7532  96.2647 0003818 145.7028 214.4459 15.30531209977076
RS-30
1 32953U 08025A   26101.86496549  .00000087  00000-0  55020-3 0  9998
2 32953  82.5059  36.6861 0020560  94.8411 265.5017 12.43177732811455
SRMSAT
1 37841U 11058D   26101.71990867  .00000383  00000-0  64192-4 0  9995
2 37841  19.9712 101.7773 0011729 191.6357 325.2667 14.11559717748418
ZACUBE-1
1 39417U 13066B   26101.87347566  .00003380  00000-0  26650-3 0  9992
2 39417  97.8126  63.8596 0045028 112.7568 247.8423 15.00653406670783
Delfi-N3xt
1 39428U 13066N   26101.50017458  .00006971  00000-0  61810-3 0  9994
2 39428  97.8335  21.9162 0077264  68.9910 291.9553 14.94225626664666
GOMX-1
1 39430U 13066Q   26101.85645338  .00001380  00000-0  21479-3 0  9995
2 39430  97.6541 306.4909 0127772 290.8887  67.8680 14.69227408660170
LO-74
1 39440U 13066AA  26101.80242701  .00003761  00000-0  35369-3 0  9996
2 39440  97.8850  50.5469 0056419 246.8720 112.6548 14.93322492667085
AO-73
1 39444U 13066AE  26101.34924762  .00006290  00000-0  40009-3 0  9990
2 39444  97.8224  71.4683 0038861  72.3239 288.2226 15.08545148669584
DTUSAT-2
1 40030U 14033W   26101.70867115  .00006781  00000-0  37549-3 0  9996
2 40030  98.0870  95.2671 0009881 100.5198 259.7145 15.14149686642629
LILACSAT-2
1 40908U 15049K   26101.85579672  .00014642  00000-0  26881-3 0  9994
2 40908  97.4754 136.2521 0008780 126.4256 233.7805 15.49322576585479
Horyu-4
1 41340U 16012D   26101.60187734  .00116613  00000-0  90801-3 0  9997
2 41340  30.9888 196.6432 0006095 101.9060 258.2279 15.70228673560274
Lapan A3
1 41603U 16040E   26101.86779678  .00003522  00000-0  11388-3 0  9999
2 41603  97.1493 100.2179 0008476 249.5487 110.4846 15.32679586544653
CAS-2T
1 41847U 16066G   26101.46966632  .00000549  00000-0  87016-4 0  9999
2 41847  98.3842 177.9558 0341674 332.1770  26.1504 14.44551386495164
TechnoSat
1 42829U 17042E   26101.48495007  .00002171  00000-0  15860-3 0  9990
2 42829  97.4203 261.7300 0016765 326.1971  33.8185 15.04559154476672
AO-91
1 43017U 17073E   26101.90074021  .00006998  00000-0  31354-3 0  9997
2 43017  97.4812 330.5014 0153205 196.7451 162.8692 15.11565457455371
S-Net D
1 43186U 18014G   26101.68028919  .00005053  00000-0  26596-3 0  9993
2 43186  97.5403   6.9020 0006658 243.7164 116.3385 15.16065740448683
S-Net B
1 43187U 18014H   26101.69044968  .00004811  00000-0  25359-3 0  9994
2 43187  97.5410   6.8967 0007366 238.5993 121.4520 15.16036354448687
S-Net A
1 43188U 18014J   26101.67948147  .00005029  00000-0  26467-3 0  9998
2 43188  97.5419   7.0823 0007223 239.3556 120.6965 15.16072613448689
S-Net C
1 43189U 18014K   26101.69395591  .00004717  00000-0  24872-3 0  9991
2 43189  97.5438   7.1612 0008759 231.7469 128.2976 15.16028364447232
Ten-Koh
1 43677U 18084G   26101.47302933  .00002656  00000-0  20408-3 0  9995
2 43677  98.0786 291.0302 0009369 345.0879  15.0067 15.02656149406140
PO-101
1 43678U 18084H   26101.80824711  .00002320  00000-0  19083-3 0  9991
2 43678  98.1050 295.2078 0013978  30.1416 330.0608 15.00138997406260
QO-100
1 43700U 18090A   26101.86112647  .00000146  00000-0  00000+0 0  9997
2 43700   0.0150 127.3602 0001225 272.0646 136.4407  1.00270894 27016
MinXSS-2
1 43758U 18099A   26101.75736531  .00029358  00000-0  67053-3 0  9992
2 43758  97.4572 176.3095 0009151 143.9694 216.2172 15.42777405403871
AO-95
1 43770U 18099N   26101.12622177  .00012047  00000-0  48045-3 0  9994
2 43770  97.4446 161.6755 0008300 215.0530 145.0163 15.25309035402992
SNUSat 2
1 43782U 18099AA  26101.37448654  .00006911  00000-0  31581-3 0  9990
2 43782  97.4131 155.8145 0011161 162.3598 197.8028 15.20828579402877
SnugLite
1 43784U 18099AC  26101.60586694  .00010253  00000-0  40412-3 0  9992
2 43784  97.3942 156.5927 0003984 143.3541 216.7970 15.25766300403163
ITASat 1
1 43786U 18099AE  26101.07565055  .00007238  00000-0  35631-3 0  9999
2 43786  97.4103 153.9468 0011817 220.4542 139.5814 15.18221278402720
EAGLET 1
1 43790U 18099AJ  26101.57203935  .00003527  00000-0  20638-3 0  9993
2 43790  97.4303 153.0071 0010541 208.6326 151.4327 15.12442204402268
ESEO
1 43792U 18099AL  26101.85485660  .00001901  00000-0  14144-3 0  9992
2 43792  97.4049 142.0682 0011814 193.6320 166.4589 15.04048554401833
JO-97
1 43803U 18099AX  26101.43249685  .00013009  00000-0  42826-3 0  9994
2 43803  97.4190 164.1254 0007148 140.5208 219.6556 15.31603261403406
Suomi 100
1 43804U 18099AY  26101.13135094  .00012008  00000-0  45547-3 0  9991
2 43804  97.4251 161.8322 0011288 151.1936 208.9929 15.26953842403188
ISAT
1 43879U 18111D   26101.77124390  .00060263  00000-0  87071-3 0  9999
2 43879  97.5892  32.4371 0007186 147.5775 212.5921 15.55725503400814
UWE-4
1 43880U 18111E   26101.78913631  .00026735  00000-0  62093-3 0  9999
2 43880  97.5846  27.3361 0007879 184.5629 175.5547 15.42306939400530
Sparrow
1 43881U 18111F   26101.56941682  .00078049  00000-0  93794-3 0  9990
2 43881  97.6112  36.9280 0004390 152.3439 207.8051 15.60602491400947
Prox-1
1 44339U 19036A   26101.54754024  .00011450  00000-0  11562-2 0  9991
2 44339  23.9943 198.8360 0006280 350.8638   9.1746 14.89069826363528
Taurus 1
1 44530U 19059C   26101.88659300  .00005812  00000-0  94711-3 0  9990
2 44530  98.6357 262.6601 0009577 155.6349 204.5310 14.71371648348899
TO-108
1 44881U 19093C   26101.80658405  .00000475  00000-0  59851-4 0  9991
2 44881  97.7558 175.6523 0012467 309.8261  50.1856 14.86413363341558
RS-44
1 44909U 19096E   26101.86408705  .00000008  00000-0 -56795-5 0  9995
2 44909  82.5262  23.7736 0216541 299.6488  58.3203 12.79747953293869
SALSAT
1 46495U 20068K   26101.73277841  .00007374  00000-0  26571-3 0  9998
2 46495  97.8865 100.8046 0010361 165.5227 194.6310 15.28838697305202
CSS (TIANHE-1)
1 48274U 21035A   26101.78167307  .00024708  00000-0  27476-3 0  9995
2 48274  41.4683   6.5596 0004964 187.2317 172.8451 15.62286818282788
CUTE
1 49263U 21088D   26101.20047437  .00055226  00000-0  41500-3 0  9993
2 49263  97.4196 195.3385 0003603 206.8613 153.2464 15.72413899251972
TeikyoSat 4
1 49396U 21102B   26101.82657617  .00001856  00000-0  12013-3 0  9999
2 49396  97.3744 133.8792 0012838 154.7207 205.4653 15.09277101242712
Z-Sat
1 49399U 21102E   26101.81852360  .00004141  00000-0  20742-3 0  9991
2 49399  97.3409 139.1574 0018439 116.6361 243.6764 15.17766902243372
KOSEN 1
1 49402U 21102H   26101.86316338  .00006439  00000-0  25281-3 0  9996
2 49402  97.3270 145.3295 0015643  84.2709 276.0313 15.25937648243907
HO-113
1 50466U 21131B   26101.82717440  .00000563  00000-0  18770-3 0  9992
2 50466  98.4942 194.5894 0003009 307.9242  52.1675 14.41294626225552
SNUGLITE 2
1 52899U 22065F   26101.81583306  .00000853  00000-0  17115-3 0  9996
2 52899  98.2099 246.8041 0006646 224.9445 135.1220 14.64221883201285
UmKA 1 (RS40S)
1 57172U 23091G   26101.82036876  .00004662  00000-0  21867-3 0  9992
2 57172  97.5116 160.7900 0012556 358.7233   1.3968 15.20097182153928
CubeBel-2 (EU11S)
1 57175U 23091K   26101.86099384  .00010244  00000-0  38113-3 0  9997
2 57175  97.5111 164.5473 0009540 358.2553   1.8651 15.27657925154178
RS-38S
1 57189U 23091Z   26101.84872565  .00012319  00000-0  37627-3 0  9994
2 57189  97.5139 170.0987 0006084 311.6735  48.3986 15.34025165154518
SONATE-2
1 59112U 24043Q   26101.84858785  .00028954  00000-0  44527-3 0  9997
2 59112  97.5450 248.4550 0007522  89.3606 270.8509 15.54169095117573
